SCP
-0 0 0 0 0 0 0 0 0 0 0 0 0 0 0 0 0 0 0 0 0 0 0 0 0 0 0 0 0 0 0 0 0 0 0 0 0 0 0 0 0 0 0 0 0 0 0 -0 -0 -0 -0 -0 -0 -0
0 0 0 0 0 0 0 0 0 0 0 0 0 0 0 0 0 0 0 0 0 0 0 0 0 0 0 0 0 0 0 0 0 0 0 0 0 0 0 0 0 0 0 0 0 0 0 -0 -0 -0 -0 -0 -0 -0
0 0 0 0 0 0 0 0 0 0 0 0 0 0 0 0 0 0 0 0 0 0 0 0 0 0 0 0 0 0 0 0 0 0 0 0 0 0 0 0 0 0 0 0 0 0 0 0 0 0 0 0 -0 -0
0 0 0 0 0 0 0 0 0 0 0 0 0 0 0 0 0 0 0 0 0 0 0 0 0 0 0 0 0 0 0 0 0 0 0 0 0 0 0 0 0 0 0 -0 0 0 0 0 0 0 0 0 -0 -0
0 0 0 0 0 0 0 0 0 0 0 0 0 0 0 0 0 0 0 0 0 0 0 0 0 0 0 0 0 0 0 0 0 0 0 0 0 0 0 0 -0 -0 0 0 0 0 0 0 0 0 0 -0 -0 -0
0 0 0 0 0 0 0 0 0 0 0 0 0 0 0 0 0 0 0 0 0 0 0 0 0 0 0 0 0 0 0 0 0 0 0 0 0 0 0 0 -0 -0 -0 -0 0 0 0 0 0 0 0 0 0 -0
0 0 0 0 0 0 0 0 0 0 0 0 0 0 0 0 0 0 0 0 0 0 0 0 0 0 0 0 0 0 0 0 0 0 0 0 0 0 0 0 -0 -0 -0 -0 0 -0 0 0 0 0 0 0 0 0
0 0 0 0 0 0 0 0 0 0 0 0 0 0 0 0 0 0 0 0 0 0 0 0 0 0 0 0 0 0 0 0 0 0 0 0 0 0 0 0 -0 -0 -0 0 0 0 0 0 0 0 0 0 0 0
0 0 0 0 0 0 0 0 0 0 0 0 0 0 0 0 0 0 0 0 0 0 0 0 0 0 0 0 0 0 0 0 0 0 0 0 0 0 0 -0 -0 -0 0 0 0 0 0 0 0 0 0 0 0 0
0 0 0 0 0 0 0 0 0 0 0 0 0 0 0 0 0 0 0 0 0 0 0 0 0 0 0 0 0 0 0 0 0 0 0 0 0 -0 -0 0 0 0 0 0 0 0 0 0 0 0 0 0 0 0
0 0 0 0 0 0 0 0 0 0 0 0 0 0 0 0 0 0 0 0 0 0 0 0 0 0 0 0 0 0 0 0 0 0 0 0 -0 -0 0 -0 0 -0 -0 0 0 0 0 0 0 0 0 0 0 0
0 0 0 0 0 0 0 0 0 0 0 0 0 0 0 0 0 0 0 0 0 0 0 0 0 0 0 0 0 0 0 0 0 0 0 0 0 -0 0 0 -0 0 -0 0 0 0 0 0 0 0 0 0 0 0
0 0 0 0 0 0 0 0 0 0 0 0 0 0 0 0 0 0 0 0 0 0 0 0 0 0 0 0 0 0 0 0 0 0 0 0 -0 -0 -0 -0 -0 0 -0 -0 0 0 0 0 0 0 0 0 0 0
0 0 0 0 0 0 0 0 0 0 0 0 0 0 0 0 0 0 0 0 0 0 0 0 0 0 0 0 0 0 0 0 0 0 0 0 -0 -0 -0 -0 -0 -0 -0 -0 -0 0 0 0 0 0 0 0 0 0
0 0 0 0 0 0 0 0 0 0 0 0 0 0 0 0 0 0 0 0 0 0 0 0 0 0 0 0 0 0 0 0 0 0 0 0 -0 -0 -0 -0 -0 -0 -0 -0 -0 0 0 0 0 0 0 0 0 0
0 0 0 0 0 0 0 0 0 0 0 0 0 0 0 0 0 0 0 0 0 0 0 0 0 0 0 0 0 0 0 0 0 0 0 -0 -0 -0 -0 -0 -0 -0 -0 -0 -0 -0 0 0 0 0 0 0 0 0
0 0 0 0 0 0 0 0 0 0 0 0 0 0 0 0 0 0 0 0 0 0 0 0 0 0 0 0 0 0 0 0 0 0 0 -0 -0 -0 -0 -0 -0 -0 -0 -0 -0 -0 0 0 0 0 0 0 0 0
0 0 0 0 0 0 0 0 0 0 0 0 0 0 0 0 0 0 0 0 0 0 0 0 0 0 0 0 0 0 0 0 0 0 0 0 -0 -0 -0 -0 -0 -0 -0 -0 -0 -0 0 0 0 0 0 0 0 0
0 0 0 0 0 0 0 0 0 0 0 0 0 0 0 0 0 0 0 0 0 0 0 0 0 0 0 0 0 0 0 0 0 0 0 -0 -0 -0 -0 -0 -0 -0 -0 -0 -0 -0 0 0 0 0 0 0 0 0
0 0 0 0 0 0 0 0 0 0 0 0 0 0 0 0 0 0 0 0 0 0 0 0 0 0 0 0 0 0 0 0 0 0 0 -0 -0 -0 -0 -0 -0 -0 -0 -0 -0 -0 0 0 0 0 0 0 0 0
0 0 0 0 0 0 0 0 0 0 0 0 0 0 0 0 0 0 0 0 0 0 0 0 0 0 0 0 0 0 0 0 0 0 0 0 -0 -0 -0 -0 -0 -0 -0 -0 -0 0 0 0 0 0 0 0 0 0
0 0 0 0 0 0 0 0 0 0 0 0 0 0 0 0 0 0 0 0 0 0 0 0 0 0 0 0 0 0 0 0 0 0 0 0 -0 -0 -0 -0 -0 -0 -0 -0 0 0 0 0 0 0 0 -0 -0 -0
0 0 0 0 0 0 0 0 0 0 0 0 0 0 0 0 0 0 0 0 0 0 0 0 0 0 0 0 0 0 0 0 0 0 0 0 -0 -0 -0 -0 -0 -0 -0 0 0 0 0 0 0 0 0 -0 -0 0
0 0 0 0 0 0 0 0 0 0 0 0 0 0 0 0 0 0 0 0 0 0 0 0 0 0 0 0 0 0 0 0 0 0 0 -0 -0 -0 -0 -0 0 -0 0 0 0 0 0 0 0 0 0 0 0 0
0 0 0 0 0 0 0 0 0 0 0 0 0 0 0 0 0 0 0 0 0 0 0 0 0 0 0 0 0 0 0 0 0 -0 -0 -0 -0 -0 -0 -0 0 0 0 0 0 0 0 0 0 0 0 0 0 0
0 0 0 0 0 0 0 0 0 0 0 0 0 0 0 0 0 0 0 0 0 0 0 0 0 0 0 0 0 0 0 0 0 -0 0 -0 -0 -0 0 0 0 0 0 0 0 0 0 0 0 0 0 0 0 0
0 0 0 0 0 0 0 0 0 0 0 0 0 0 0 0 0 0 0 0 0 0 0 0 0 0 0 0 0 0 0 0 0 0 0 0 0 0 0 0 0 0 0 0 0 0 0 0 0 0 0 0 0 0
0 0 0 0 0 0 0 0 0 0 0 0 0 0 0 0 0 0 0 0 0 0 0 0 0 0 0 0 -0 -0 -0 -0 -0 -0 0 0 0 0 0 0 0 0 0 0 0 0 0 0 0 0 0 0 0 0
0 0 0 0 0 0 0 0 0 0 0 0 0 0 0 0 0 0 0 0 0 0 0 0 0 -0 -0 -0 -0 -0 -0 -0 0 0 0 0 0 0 0 0 0 0 0 0 0 0 0 0 0 0 0 0 0 0
0 0 0 0 0 0 0 0 0 0 0 0 0 0 0 0 0 0 0 0 0 0 -0 -0 0 -0 -0 -0 0 0 0 0 0 0 0 0 0 0 0 0 0 0 0 0 0 0 0 0 0 0 0 0 0 0
0 0 0 0 0 0 0 0 0 0 0 0 0 0 0 0 0 0 0 0 0 0 0 -0 0 -0 0 0 0 0 0 0 -0 0 0 0 0 0 0 0 0 0 0 0 0 0 0 0 0 0 0 0 0 0
0 0 0 0 0 0 0 0 0 0 0 0 0 0 0 0 0 0 0 0 0 0 -0 0 0 0 0 0 0 0 0 0 0 0 0 0 0 0 0 0 0 0 0 0 0 0 0 0 0 0 0 0 0 0
0 0 0 0 0 0 0 0 0 0 0 0 0 0 0 0 0 0 0 0 -0 -0 0 0 0 0 0 0 0 0 0 0 0 0 0 0 0 0 0 0 0 0 0 0 0 0 0 0 0 0 0 0 0 0
Wind_Speed_500mb
31 31 33 34 37 38 41 43 44 44 44 43 40 37 35 37 40 39 54 50 54 45 82 73 66 53 40 28 15 26 20 10 3 2 6 9 5 11 10 13 9 16 8 9 4 3 17 34 14 4 13 43 35 29
41 41 41 41 43 46 47 49 52 52 52 50 49 44 41 38 39 41 52 60 63 71 58 76 74 73 73 82 67 40 30 15 14 1 4 4 13 17 38 28 10 11 15 9 15 12 19 40 32 60 59 35 33 23
50 50 50 49 51 53 55 57 59 59 60 58 56 54 49 46 42 45 54 55 57 62 63 84 67 64 50 60 59 46 36 46 30 51 32 13 20 10 21 25 26 29 48 23 30 38 47 69 72 62 59 61 49 33
59 59 58 58 60 62 63 64 65 66 66 64 60 58 55 53 50 46 55 57 56 39 25 61 52 51 58 55 59 79 87 78 72 52 45 19 23 31 27 32 33 36 12 16 29 44 53 58 66 68 56 40 27 25
65 65 66 67 69 70 70 71 72 72 69 67 64 60 58 57 55 52 56 63 63 49 33 70 62 71 71 63 62 68 77 79 66 38 21 21 40 30 31 29 33 45 38 18 17 53 32 54 52 42 39 41 33 24
71 72 74 75 76 77 76 75 73 71 71 70 67 63 59 56 55 54 52 48 46 53 23 8 21 42 72 61 56 59 65 69 56 27 19 34 67 49 20 33 64 72 75 87 62 86 65 74 70 64 53 43 38 29
76 77 78 79 80 80 78 76 75 73 72 70 68 64 59 55 56 57 34 36 34 34 17 14 18 9 7 14 35 44 49 50 49 44 28 54 65 49 25 35 51 69 76 73 71 73 58 77 60 62 49 50 49 36
83 83 83 83 81 79 78 76 74 71 70 66 63 60 59 59 65 72 84 72 68 50 18 6 9 17 23 12 9 20 18 27 33 35 18 20 19 22 13 37 77 91 98 84 86 79 81 81 62 66 62 51 53 52
85 84 83 83 83 81 78 73 65 66 64 62 60 58 61 66 63 69 72 65 63 69 12 12 9 17 11 10 8 9 15 3 21 8 9 12 7 13 22 47 70 80 65 73 70 62 68 79 80 76 69 56 58 60
89 89 89 87 85 81 74 71 63 58 70 66 55 49 24 34 51 50 24 18 23 26 29 13 33 13 18 14 8 3 10 7 3 12 13 3 27 73 49 74 74 75 76 70 56 58 66 71 78 81 77 75 72 64
94 93 92 88 85 79 71 74 69 64 58 57 40 38 56 48 29 19 18 14 17 8 16 19 40 20 22 6 7 15 5 4 3 12 7 16 26 22 83 95 94 83 65 55 71 80 72 75 79 82 80 75 70 62
98 96 92 89 84 79 66 78 72 63 63 60 49 48 35 16 20 12 10 8 10 12 17 16 20 23 14 16 8 8 7 4 13 1 4 7 3 53 82 99 110 95 84 73 48 57 76 76 74 68 65 62 61 55
101 98 95 91 82 79 87 92 70 69 60 60 41 18 14 18 13 15 19 8 6 15 24 20 8 20 13 16 8 2 5 11 3 3 10 6 11 49 79 91 104 98 79 64 48 33 44 57 67 65 60 57 50 41
105 98 96 92 88 94 99 83 65 63 53 24 25 13 15 13 14 12 14 9 22 26 48 43 15 13 10 8 5 6 10 6 5 2 17 3 34 55 64 71 83 93 82 64 52 39 26 22 28 36 36 34 33 34
111 104 100 94 93 95 94 77 67 61 55 28 20 14 18 20 15 18 40 18 19 40 57 21 12 14 3 4 7 1 6 10 12 10 5 9 35 45 55 64 70 79 77 63 50 41 30 21 17 19 22 24 27 30
99 95 96 98 97 93 81 71 67 71 41 27 28 12 5 9 6 19 38 32 42 49 34 13 7 7 9 8 6 15 8 12 10 6 4 24 33 39 47 54 61 64 65 55 46 38 30 25 22 21 22 25 28 32
81 105 99 89 84 77 70 65 63 42 27 17 12 44 45 36 38 38 49 46 61 48 8 7 13 16 4 4 5 8 11 9 7 15 23 33 39 43 50 53 56 55 55 50 42 35 30 25 21 18 19 21 24 26
85 92 87 77 70 75 76 80 52 25 18 23 12 35 38 27 29 34 48 55 42 28 26 8 8 8 10 11 8 8 24 36 37 32 32 32 39 44 46 48 50 51 49 45 41 38 32 27 23 20 19 20 21 24
87 82 81 72 61 67 26 22 40 13 22 15 21 25 30 25 33 42 52 67 41 36 23 15 7 7 9 11 11 35 37 32 24 32 45 47 45 34 42 47 49 49 45 42 41 37 34 28 28 25 22 23 23 23
80 78 79 66 59 56 21 14 17 8 7 17 15 26 15 13 34 42 54 55 43 24 6 7 10 13 16 19 21 20 24 32 39 45 51 41 40 47 49 47 48 45 41 36 35 36 33 27 27 29 29 29 30 24
52 57 63 55 57 50 16 10 8 4 2 6 14 15 8 22 18 16 16 36 13 14 5 13 13 16 20 23 24 28 31 35 37 38 43 54 53 58 56 43 38 38 39 36 34 31 31 32 30 30 32 31 35 35
32 28 23 27 7 6 8 8 10 7 4 4 8 8 8 4 5 6 15 4 8 6 8 5 12 19 22 24 26 30 34 39 41 45 42 45 56 54 50 42 42 43 38 34 32 34 31 31 33 32 34 35 37 37
16 15 5 4 5 8 6 10 6 7 3 3 5 6 4 3 4 9 2 4 3 5 8 12 18 25 30 30 30 29 30 34 37 36 34 36 42 44 46 44 40 41 39 33 31 32 33 33 34 37 39 39 41 40
11 7 11 11 14 4 5 10 8 7 5 4 3 6 3 3 2 5 4 4 4 1 5 12 21 24 26 27 27 28 29 35 36 37 32 36 43 43 41 43 40 39 36 36 35 33 33 33 36 41 42 43 42 43
7 17 10 9 13 7 7 6 7 4 4 3 3 3 2 5 3 1 6 3 6 2 7 12 16 22 30 35 31 28 23 32 36 42 37 35 40 42 44 41 37 33 28 34 34 33 34 39 41 42 42 42 43 44
14 17 10 1 7 5 4 4 2 3 3 3 1 5 4 5 2 9 5 5 2 9 17 21 28 33 31 30 41 39 32 28 35 45 42 35 32 38 44 43 35 23 21 27 31 38 43 43 43 42 41 38 39 43
9 4 9 12 5 8 9 8 5 7 4 4 3 4 5 3 10 6 1 2 13 19 22 25 30 36 42 43 39 38 36 33 36 41 39 37 40 42 43 43 38 31 27 29 36 42 46 44 44 43 43 40 37 37
9 7 6 6 9 9 8 4 4 3 4 5 5 1 9 12 7 2 1 8 16 22 24 25 29 34 38 42 43 42 38 32 31 31 34 31 24 21 21 21 19 19 28 33 38 41 42 43 45 45 45 44 41 36
9 7 4 9 7 8 2 7 7 4 6 5 6 5 6 6 5 10 9 12 20 32 37 36 29 33 35 34 34 33 32 31 32 34 32 29 23 17 16 19 28 30 32 36 35 37 39 41 43 46 49 52 52 47
5 5 8 4 5 3 2 3 2 2 6 9 9 9 13 20 14 13 20 22 22 34 43 43 39 40 41 41 41 30 22 25 28 29 32 31 30 30 28 27 27 27 31 36 37 33 29 32 34 35 38 40 39 40
6 4 5 2 5 2 3 4 5 10 10 8 13 18 17 15 15 13 8 10 24 35 47 48 41 34 37 36 36 37 32 15 16 22 30 37 36 31 28 25 24 28 30 32 31 31 31 31 30 31 31 31 29 30
3 4 6 2 3 1 3 3 4 5 4 5 5 7 8 7 7 5 9 22 35 36 51 49 48 47 39 34 28 28 32 30 27 27 30 31 30 27 26 24 25 27 26 27 28 28 27 28 28 26 26 25 24 22
3 3 1 2 3 2 2 5 4 5 5 4 4 4 4 5 6 7 19 31 26 44 49 47 46 42 34 24 30 25 22 27 29 29 28 26 26 24 23 21 22 23 23 22 21 21 21 21 22 21 19 18 17 15
Wind_Direction_500mb
268 282 295 305 312 318 319 319 316 312 309 306 308 310 310 299 299 285 279 271 256 245 264 264 264 258 259 248 255 274 312 284 356 125 187 239 236 231 229 231 221 234 178 212 69 133 285 257 283 218 282 308 307 308
267 276 287 294 303 308 311 314 313 310 306 303 298 298 301 301 295 293 279 282 277 252 259 276 272 271 269 274 267 253 245 250 231 289 301 337 283 289 284 282 295 257 210 223 204 229 252 266 262 288 307 285 306 300
267 274 280 286 293 299 302 306 307 306 303 301 297 292 293 293 292 287 285 286 283 270 268 267 262 285 281 271 273 246 246 244 240 242 265 247 248 235 260 272 261 262 245 247 266 261 255 264 273 279 283 282 285 285
270 274 277 282 287 292 296 299 301 302 300 298 295 291 286 286 289 286 280 283 279 272 268 280 280 270 290 276 263 255 258 256 262 260 255 258 262 243 256 265 255 253 247 231 248 257 267 269 269 279 285 300 258 258
271 273 275 279 284 289 293 295 297 297 296 294 292 289 284 280 282 284 279 275 272 256 281 287 291 284 280 267 258 256 256 254 255 260 250 256 261 262 256 259 268 257 245 227 239 257 245 266 272 270 280 288 243 251
272 274 276 279 283 287 291 293 294 294 294 293 291 288 285 278 279 284 282 288 258 256 261 294 287 283 286 274 267 258 264 256 243 244 255 255 254 247 263 264 261 256 249 252 250 257 261 265 270 270 267 276 254 245
273 275 278 281 284 288 291 292 293 293 293 294 292 287 280 275 269 260 255 272 253 261 243 276 281 217 267 254 253 253 257 246 246 250 249 260 262 245 255 266 269 260 260 254 253 261 260 257 252 265 265 268 257 245
275 278 280 283 285 286 288 290 292 292 293 292 287 283 278 274 270 264 261 264 267 250 222 236 258 294 282 256 231 230 227 265 260 257 251 241 264 198 234 240 253 251 255 261 256 250 247 258 253 264 265 254 251 251
275 277 280 282 284 285 286 285 288 293 296 289 285 285 280 269 263 262 266 261 252 232 229 220 162 281 181 207 238 245 240 308 271 214 238 223 229 233 234 248 254 260 255 255 260 255 249 247 253 256 255 247 246 256
278 280 281 283 283 283 283 283 286 294 292 286 280 278 266 246 254 254 244 210 210 224 226 227 233 235 222 171 209 288 227 217 236 236 269 203 266 254 312 328 301 296 285 275 252 243 240 240 248 248 245 251 252 254
279 280 281 280 280 279 280 286 284 284 284 276 257 246 256 263 268 248 215 193 199 233 227 226 224 228 232 139 195 215 234 242 234 257 149 297 280 352 344 351 348 335 321 306 277 262 253 248 250 249 249 247 252 250
279 279 279 278 276 275 281 279 278 272 266 264 258 260 244 235 206 204 198 203 198 218 199 179 201 195 188 179 134 219 209 31 235 206 87 257 68 339 345 353 355 350 340 327 317 278 266 259 252 254 259 256 251 245
280 279 278 276 270 273 283 288 273 269 271 262 245 216 185 199 218 204 196 228 218 195 174 169 183 171 179 183 176 145 207 238 336 73 231 206 315 339 347 351 351 351 346 336 338 312 276 262 256 252 253 254 256 251
280 279 279 275 270 278 277 279 269 265 255 219 191 201 193 201 225 194 199 202 203 174 171 167 140 172 187 163 194 190 237 62 302 177 261 243 347 344 345 351 348 348 346 344 340 344 332 301 274 261 256 254 252 248
275 273 275 272 271 269 282 271 263 255 243 215 200 218 217 221 217 226 216 179 172 175 159 130 125 166 158 237 205 55 316 241 202 226 234 337 338 343 348 353 350 347 344 343 340 340 336 320 290 272 258 249 249 251
278 279 269 274 275 278 273 270 260 247 237 225 207 200 159 164 218 196 195 188 168 150 137 127 127 166 208 180 131 219 134 223 259 205 234 330 336 340 345 346 346 342 338 332 332 332 333 326 311 292 275 260 251 250
275 273 272 268 274 275 273 256 253 226 228 212 233 219 229 235 232 207 190 185 177 157 166 140 176 203 111 182 244 189 202 225 219 271 320 337 334 337 341 339 336 332 332 324 321 317 320 318 314 304 288 276 271 262
260 271 274 275 276 270 255 247 236 212 211 206 188 216 204 211 192 187 192 184 165 163 142 169 153 188 203 186 257 249 274 282 273 277 291 312 324 331 328 328 325 324 324 317 313 310 306 309 306 298 290 277 271 271
271 271 271 271 268 252 241 219 221 211 209 196 207 195 187 195 195 192 177 173 163 158 142 155 156 203 229 225 229 273 269 259 272 287 300 312 314 313 319 320 317 314 311 309 305 305 301 301 299 294 289 284 279 277
270 269 267 264 257 235 233 206 203 222 182 192 175 171 163 170 165 168 165 168 161 151 128 174 208 210 217 252 254 261 273 285 291 296 297 305 303 303 307 311 310 307 299 300 300 301 295 293 294 294 293 293 290 285
264 259 257 247 220 221 208 142 110 89 110 132 137 143 113 146 146 168 155 160 162 183 222 223 231 238 252 265 275 282 288 290 292 289 291 295 297 297 303 305 301 298 294 295 296 294 292 293 293 291 289 291 290 293
232 232 200 199 179 115 95 94 110 115 100 87 109 71 76 76 67 95 134 188 209 210 207 225 249 269 279 286 284 286 289 289 288 287 288 289 290 296 300 300 298 293 289 286 289 292 292 290 290 291 291 291 289 291
260 249 207 142 100 62 43 101 95 37 121 101 117 107 67 67 55 144 184 245 235 245 256 272 285 292 296 296 297 295 289 283 282 286 286 285 285 289 292 292 291 287 285 279 284 286 288 289 290 292 293 294 295 296
125 81 44 44 42 57 45 36 52 60 69 60 89 100 86 46 55 55 252 269 180 207 312 311 305 307 297 291 293 292 287 279 280 279 282 286 287 289 290 288 286 280 276 281 282 284 284 286 292 295 296 297 297 297
102 12 31 28 27 45 44 32 2 42 84 21 121 112 101 4 75 233 229 256 147 110 339 325 322 312 310 311 313 309 299 290 286 287 283 285 291 289 286 285 280 273 269 274 280 280 285 291 294 293 294 296 297 295
70 10 38 221 352 72 23 112 56 141 93 117 88 328 26 88 102 239 239 138 82 338 337 328 317 314 313 319 317 319 313 298 290 287 291 292 288 288 290 288 285 277 277 273 274 284 291 296 297 298 296 296 294 293
91 334 47 43 78 102 66 62 77 80 79 151 256 34 71 180 243 255 165 307 328 332 322 314 306 306 310 313 312 310 309 303 294 292 293 291 291 288 280 277 276 284 277 274 284 292 294 297 298 299 298 296 297 296
89 55 115 359 55 42 125 70 78 167 228 153 95 191 184 197 236 146 18 355 355 343 325 309 307 306 304 305 306 307 308 308 299 291 291 299 301 286 274 270 268 278 289 291 293 294 296 298 301 301 299 300 300 300
74 63 62 24 40 38 141 152 202 189 159 177 149 253 252 251 257 290 269 317 338 344 340 331 317 313 308 305 299 297 296 300 304 299 293 293 309 297 271 264 287 293 292 291 294 298 299 297 298 303 305 304 307 309
59 45 90 72 97 257 277 159 89 160 229 245 269 284 277 283 309 292 271 285 304 333 341 335 326 320 317 316 313 310 300 294 288 284 286 287 293 299 295 290 288 289 293 297 300 299 292 291 292 292 292 293 293 293
114 103 80 107 216 163 146 197 263 277 275 262 249 258 278 300 301 308 285 285 320 326 331 333 327 330 321 316 316 313 314 310 294 291 291 293 299 304 304 299 295 299 301 304 304 308 311 309 309 308 306 303 302 300
82 82 123 61 290 176 226 249 272 266 247 247 254 251 291 284 285 306 308 324 325 325 330 331 330 329 325 316 309 305 303 303 302 297 296 295 298 301 299 296 297 301 310 315 314 312 313 315 316 314 313 311 310 308
103 110 104 325 10 67 17 299 259 292 243 255 259 273 275 283 270 320 327 323 333 334 330 329 328 326 323 317 314 307 304 303 303 304 304 305 305 305 307 308 314 316 312 312 315 318 321 320 321 323 323 320 319 317
Wind_Speed_850mb
31 31 33 34 37 38 41 43 44 44 44 43 40 37 35 37 40 39 54 50 54 45 82 73 66 53 40 28 15 26 20 10 3 2 6 9 5 11 10 13 9 16 8 9 4 3 17 34 14 4 13 43 35 29
41 41 41 41 43 46 47 49 52 52 52 50 49 44 41 38 39 41 52 60 63 71 58 76 74 73 73 82 67 40 30 15 14 1 4 4 13 17 38 28 10 11 15 9 15 12 19 40 32 60 59 35 33 23
50 50 50 49 51 53 55 57 59 59 60 58 56 54 49 46 42 45 54 55 57 62 63 84 67 64 50 60 59 46 36 46 30 51 32 13 20 10 21 25 26 29 48 23 30 38 47 69 72 62 59 61 49 33
59 59 58 58 60 62 63 64 65 66 66 64 60 58 55 53 50 46 55 57 56 39 25 61 52 51 58 55 59 79 87 78 72 52 45 19 23 31 27 32 33 36 12 16 29 44 53 58 66 68 56 40 27 25
65 65 66 67 69 70 70 71 72 72 69 67 64 60 58 57 55 52 56 63 63 49 33 70 62 71 71 63 62 68 77 79 66 38 21 21 40 30 31 29 33 45 38 18 17 53 32 54 52 42 39 41 33 24
71 72 74 75 76 77 76 75 73 71 71 70 67 63 59 56 55 54 52 48 46 53 23 8 21 42 72 61 56 59 65 69 56 27 19 34 67 49 20 33 64 72 75 87 62 86 65 74 70 64 53 43 38 29
76 77 78 79 80 80 78 76 75 73 72 70 68 64 59 55 56 57 34 36 34 34 17 14 18 9 7 14 35 44 49 50 49 44 28 54 65 49 25 35 51 69 76 73 71 73 58 77 60 62 49 50 49 36
83 83 83 83 81 79 78 76 74 71 70 66 63 60 59 59 65 72 84 72 68 50 18 6 9 17 23 12 9 20 18 27 33 35 18 20 19 22 13 37 77 91 98 84 86 79 81 81 62 66 62 51 53 52
85 84 83 83 83 81 78 73 65 66 64 62 60 58 61 66 63 69 72 65 63 69 12 12 9 17 11 10 8 9 15 3 21 8 9 12 7 13 22 47 70 80 65 73 70 62 68 79 80 76 69 56 58 60
89 89 89 87 85 81 74 71 63 58 70 66 55 49 24 34 51 50 24 18 23 26 29 13 33 13 18 14 8 3 10 7 3 12 13 3 27 73 49 74 74 75 76 70 56 58 66 71 78 81 77 75 72 64
94 93 92 88 85 79 71 74 69 64 58 57 40 38 56 48 29 19 18 14 17 8 16 19 40 20 22 6 7 15 5 4 3 12 7 16 26 22 83 95 94 83 65 55 71 80 72 75 79 82 80 75 70 62
98 96 92 89 84 79 66 78 72 63 63 60 49 48 35 16 20 12 10 8 10 12 17 16 20 23 14 16 8 8 7 4 13 1 4 7 3 53 82 99 110 95 84 73 48 57 76 76 74 68 65 62 61 55
101 98 95 91 82 79 87 92 70 69 60 60 41 18 14 18 13 15 19 8 6 15 24 20 8 20 13 16 8 2 5 11 3 3 10 6 11 49 79 91 104 98 79 64 48 33 44 57 67 65 60 57 50 41
105 98 96 92 88 94 99 83 65 63 53 24 25 13 15 13 14 12 14 9 22 26 48 43 15 13 10 8 5 6 10 6 5 2 17 3 34 55 64 71 83 93 82 64 52 39 26 22 28 36 36 34 33 34
111 104 100 94 93 95 94 77 67 61 55 28 20 14 18 20 15 18 40 18 19 40 57 21 12 14 3 4 7 1 6 10 12 10 5 9 35 45 55 64 70 79 77 63 50 41 30 21 17 19 22 24 27 30
99 95 96 98 97 93 81 71 67 71 41 27 28 12 5 9 6 19 38 32 42 49 34 13 7 7 9 8 6 15 8 12 10 6 4 24 33 39 47 54 61 64 65 55 46 38 30 25 22 21 22 25 28 32
81 105 99 89 84 77 70 65 63 42 27 17 12 44 45 36 38 38 49 46 61 48 8 7 13 16 4 4 5 8 11 9 7 15 23 33 39 43 50 53 56 55 55 50 42 35 30 25 21 18 19 21 24 26
85 92 87 77 70 75 76 80 52 25 18 23 12 35 38 27 29 34 48 55 42 28 26 8 8 8 10 11 8 8 24 36 37 32 32 32 39 44 46 48 50 51 49 45 41 38 32 27 23 20 19 20 21 24
87 82 81 72 61 67 26 22 40 13 22 15 21 25 30 25 33 42 52 67 41 36 23 15 7 7 9 11 11 35 37 32 24 32 45 47 45 34 42 47 49 49 45 42 41 37 34 28 28 25 22 23 23 23
80 78 79 66 59 56 21 14 17 8 7 17 15 26 15 13 34 42 54 55 43 24 6 7 10 13 16 19 21 20 24 32 39 45 51 41 40 47 49 47 48 45 41 36 35 36 33 27 27 29 29 29 30 24
52 57 63 55 57 50 16 10 8 4 2 6 14 15 8 22 18 16 16 36 13 14 5 13 13 16 20 23 24 28 31 35 37 38 43 54 53 58 56 43 38 38 39 36 34 31 31 32 30 30 32 31 35 35
32 28 23 27 7 6 8 8 10 7 4 4 8 8 8 4 5 6 15 4 8 6 8 5 12 19 22 24 26 30 34 39 41 45 42 45 56 54 50 42 42 43 38 34 32 34 31 31 33 32 34 35 37 37
16 15 5 4 5 8 6 10 6 7 3 3 5 6 4 3 4 9 2 4 3 5 8 12 18 25 30 30 30 29 30 34 37 36 34 36 42 44 46 44 40 41 39 33 31 32 33 33 34 37 39 39 41 40
11 7 11 11 14 4 5 10 8 7 5 4 3 6 3 3 2 5 4 4 4 1 5 12 21 24 26 27 27 28 29 35 36 37 32 36 43 43 41 43 40 39 36 36 35 33 33 33 36 41 42 43 42 43
7 17 10 9 13 7 7 6 7 4 4 3 3 3 2 5 3 1 6 3 6 2 7 12 16 22 30 35 31 28 23 32 36 42 37 35 40 42 44 41 37 33 28 34 34 33 34 39 41 42 42 42 43 44
14 17 10 1 7 5 4 4 2 3 3 3 1 5 4 5 2 9 5 5 2 9 17 21 28 33 31 30 41 39 32 28 35 45 42 35 32 38 44 43 35 23 21 27 31 38 43 43 43 42 41 38 39 43
9 4 9 12 5 8 9 8 5 7 4 4 3 4 5 3 10 6 1 2 13 19 22 25 30 36 42 43 39 38 36 33 36 41 39 37 40 42 43 43 38 31 27 29 36 42 46 44 44 43 43 40 37 37
9 7 6 6 9 9 8 4 4 3 4 5 5 1 9 12 7 2 1 8 16 22 24 25 29 34 38 42 43 42 38 32 31 31 34 31 24 21 21 21 19 19 28 33 38 41 42 43 45 45 45 44 41 36
9 7 4 9 7 8 2 7 7 4 6 5 6 5 6 6 5 10 9 12 20 32 37 36 29 33 35 34 34 33 32 31 32 34 32 29 23 17 16 19 28 30 32 36 35 37 39 41 43 46 49 52 52 47
5 5 8 4 5 3 2 3 2 2 6 9 9 9 13 20 14 13 20 22 22 34 43 43 39 40 41 41 41 30 22 25 28 29 32 31 30 30 28 27 27 27 31 36 37 33 29 32 34 35 38 40 39 40
6 4 5 2 5 2 3 4 5 10 10 8 13 18 17 15 15 13 8 10 24 35 47 48 41 34 37 36 36 37 32 15 16 22 30 37 36 31 28 25 24 28 30 32 31 31 31 31 30 31 31 31 29 30
3 4 6 2 3 1 3 3 4 5 4 5 5 7 8 7 7 5 9 22 35 36 51 49 48 47 39 34 28 28 32 30 27 27 30 31 30 27 26 24 25 27 26 27 28 28 27 28 28 26 26 25 24 22
3 3 1 2 3 2 2 5 4 5 5 4 4 4 4 5 6 7 19 31 26 44 49 47 46 42 34 24 30 25 22 27 29 29 28 26 26 24 23 21 22 23 23 22 21 21 21 21 22 21 19 18 17 15
Wind_Direction_850mb
268 282 295 305 312 318 319 319 316 312 309 306 308 310 310 299 299 285 279 271 256 245 264 264 264 258 259 248 255 274 312 284 356 125 187 239 236 231 229 231 221 234 178 212 69 133 285 257 283 218 282 308 307 308
267 276 287 294 303 308 311 314 313 310 306 303 298 298 301 301 295 293 279 282 277 252 259 276 272 271 269 274 267 253 245 250 231 289 301 337 283 289 284 282 295 257 210 223 204 229 252 266 262 288 307 285 306 300
267 274 280 286 293 299 302 306 307 306 303 301 297 292 293 293 292 287 285 286 283 270 268 267 262 285 281 271 273 246 246 244 240 242 265 247 248 235 260 272 261 262 245 247 266 261 255 264 273 279 283 282 285 285
270 274 277 282 287 292 296 299 301 302 300 298 295 291 286 286 289 286 280 283 279 272 268 280 280 270 290 276 263 255 258 256 262 260 255 258 262 243 256 265 255 253 247 231 248 257 267 269 269 279 285 300 258 258
271 273 275 279 284 289 293 295 297 297 296 294 292 289 284 280 282 284 279 275 272 256 281 287 291 284 280 267 258 256 256 254 255 260 250 256 261 262 256 259 268 257 245 227 239 257 245 266 272 270 280 288 243 251
272 274 276 279 283 287 291 293 294 294 294 293 291 288 285 278 279 284 282 288 258 256 261 294 287 283 286 274 267 258 264 256 243 244 255 255 254 247 263 264 261 256 249 252 250 257 261 265 270 270 267 276 254 245
273 275 278 281 284 288 291 292 293 293 293 294 292 287 280 275 269 260 255 272 253 261 243 276 281 217 267 254 253 253 257 246 246 250 249 260 262 245 255 266 269 260 260 254 253 261 260 257 252 265 265 268 257 245
275 278 280 283 285 286 288 290 292 292 293 292 287 283 278 274 270 264 261 264 267 250 222 236 258 294 282 256 231 230 227 265 260 257 251 241 264 198 234 240 253 251 255 261 256 250 247 258 253 264 265 254 251 251
275 277 280 282 284 285 286 285 288 293 296 289 285 285 280 269 263 262 266 261 252 232 229 220 162 281 181 207 238 245 240 308 271 214 238 223 229 233 234 248 254 260 255 255 260 255 249 247 253 256 255 247 246 256
278 280 281 283 283 283 283 283 286 294 292 286 280 278 266 246 254 254 244 210 210 224 226 227 233 235 222 171 209 288 227 217 236 236 269 203 266 254 312 328 301 296 285 275 252 243 240 240 248 248 245 251 252 254
279 280 281 280 280 279 280 286 284 284 284 276 257 246 256 263 268 248 215 193 199 233 227 226 224 228 232 139 195 215 234 242 234 257 149 297 280 352 344 351 348 335 321 306 277 262 253 248 250 249 249 247 252 250
279 279 279 278 276 275 281 279 278 272 266 264 258 260 244 235 206 204 198 203 198 218 199 179 201 195 188 179 134 219 209 31 235 206 87 257 68 339 345 353 355 350 340 327 317 278 266 259 252 254 259 256 251 245
280 279 278 276 270 273 283 288 273 269 271 262 245 216 185 199 218 204 196 228 218 195 174 169 183 171 179 183 176 145 207 238 336 73 231 206 315 339 347 351 351 351 346 336 338 312 276 262 256 252 253 254 256 251
280 279 279 275 270 278 277 279 269 265 255 219 191 201 193 201 225 194 199 202 203 174 171 167 140 172 187 163 194 190 237 62 302 177 261 243 347 344 345 351 348 348 346 344 340 344 332 301 274 261 256 254 252 248
275 273 275 272 271 269 282 271 263 255 243 215 200 218 217 221 217 226 216 179 172 175 159 130 125 166 158 237 205 55 316 241 202 226 234 337 338 343 348 353 350 347 344 343 340 340 336 320 290 272 258 249 249 251
278 279 269 274 275 278 273 270 260 247 237 225 207 200 159 164 218 196 195 188 168 150 137 127 127 166 208 180 131 219 134 223 259 205 234 330 336 340 345 346 346 342 338 332 332 332 333 326 311 292 275 260 251 250
275 273 272 268 274 275 273 256 253 226 228 212 233 219 229 235 232 207 190 185 177 157 166 140 176 203 111 182 244 189 202 225 219 271 320 337 334 337 341 339 336 332 332 324 321 317 320 318 314 304 288 276 271 262
260 271 274 275 276 270 255 247 236 212 211 206 188 216 204 211 192 187 192 184 165 163 142 169 153 188 203 186 257 249 274 282 273 277 291 312 324 331 328 328 325 324 324 317 313 310 306 309 306 298 290 277 271 271
271 271 271 271 268 252 241 219 221 211 209 196 207 195 187 195 195 192 177 173 163 158 142 155 156 203 229 225 229 273 269 259 272 287 300 312 314 313 319 320 317 314 311 309 305 305 301 301 299 294 289 284 279 277
270 269 267 264 257 235 233 206 203 222 182 192 175 171 163 170 165 168 165 168 161 151 128 174 208 210 217 252 254 261 273 285 291 296 297 305 303 303 307 311 310 307 299 300 300 301 295 293 294 294 293 293 290 285
264 259 257 247 220 221 208 142 110 89 110 132 137 143 113 146 146 168 155 160 162 183 222 223 231 238 252 265 275 282 288 290 292 289 291 295 297 297 303 305 301 298 294 295 296 294 292 293 293 291 289 291 290 293
232 232 200 199 179 115 95 94 110 115 100 87 109 71 76 76 67 95 134 188 209 210 207 225 249 269 279 286 284 286 289 289 288 287 288 289 290 296 300 300 298 293 289 286 289 292 292 290 290 291 291 291 289 291
260 249 207 142 100 62 43 101 95 37 121 101 117 107 67 67 55 144 184 245 235 245 256 272 285 292 296 296 297 295 289 283 282 286 286 285 285 289 292 292 291 287 285 279 284 286 288 289 290 292 293 294 295 296
125 81 44 44 42 57 45 36 52 60 69 60 89 100 86 46 55 55 252 269 180 207 312 311 305 307 297 291 293 292 287 279 280 279 282 286 287 289 290 288 286 280 276 281 282 284 284 286 292 295 296 297 297 297
102 12 31 28 27 45 44 32 2 42 84 21 121 112 101 4 75 233 229 256 147 110 339 325 322 312 310 311 313 309 299 290 286 287 283 285 291 289 286 285 280 273 269 274 280 280 285 291 294 293 294 296 297 295
70 10 38 221 352 72 23 112 56 141 93 117 88 328 26 88 102 239 239 138 82 338 337 328 317 314 313 319 317 319 313 298 290 287 291 292 288 288 290 288 285 277 277 273 274 284 291 296 297 298 296 296 294 293
91 334 47 43 78 102 66 62 77 80 79 151 256 34 71 180 243 255 165 307 328 332 322 314 306 306 310 313 312 310 309 303 294 292 293 291 291 288 280 277 276 284 277 274 284 292 294 297 298 299 298 296 297 296
89 55 115 359 55 42 125 70 78 167 228 153 95 191 184 197 236 146 18 355 355 343 325 309 307 306 304 305 306 307 308 308 299 291 291 299 301 286 274 270 268 278 289 291 293 294 296 298 301 301 299 300 300 300
74 63 62 24 40 38 141 152 202 189 159 177 149 253 252 251 257 290 269 317 338 344 340 331 317 313 308 305 299 297 296 300 304 299 293 293 309 297 271 264 287 293 292 291 294 298 299 297 298 303 305 304 307 309
59 45 90 72 97 257 277 159 89 160 229 245 269 284 277 283 309 292 271 285 304 333 341 335 326 320 317 316 313 310 300 294 288 284 286 287 293 299 295 290 288 289 293 297 300 299 292 291 292 292 292 293 293 293
114 103 80 107 216 163 146 197 263 277 275 262 249 258 278 300 301 308 285 285 320 326 331 333 327 330 321 316 316 313 314 310 294 291 291 293 299 304 304 299 295 299 301 304 304 308 311 309 309 308 306 303 302 300
82 82 123 61 290 176 226 249 272 266 247 247 254 251 291 284 285 306 308 324 325 325 330 331 330 329 325 316 309 305 303 303 302 297 296 295 298 301 299 296 297 301 310 315 314 312 313 315 316 314 313 311 310 308
103 110 104 325 10 67 17 299 259 292 243 255 259 273 275 283 270 320 327 323 333 334 330 329 328 326 323 317 314 307 304 303 303 304 304 305 305 305 307 308 314 316 312 312 315 318 321 320 321 323 323 320 319 317